Location: Los Ranchitos
(37.9930°N, 122.5425°W)
Time: 03:26:07
(UTC+00:00)

Lacrosse 5 - Pass Details

Date: 21 September 2020
Orbit: 716 x 723 km, 57.0° (Epoch: 26 October)

Event Time Altitude Azimuth Distance (km) Brightness Sun altitude
Exits shadow 11:20:44 22° 353° (N) 1,529 3.7 -30.5°
Drops below altitude 10° 11:23:26 10° 22° (NNE) 2,205 4.9 -30.1°
Sets 11:26:11 0° 35° (NE) 3,129 6.1 -29.6°
